| time (UTC) | temp C | wind direction | speed KPH | gust KPH | rain 1hr cm | rain 24hr cm | rain mn cm | humidity % | barometer mb |
| 20260507060030 | 11 | 0 | 0.0 | 0.0 | 0.43 | 0.86 | 0.48 | 90 | 1010.0 |
| 20260507054527 | 11 | 0 | 0.0 | 0.0 | 0.33 | 0.71 | 0.33 | 90 | 1010.3 |
| 20260507053030 | 11 | 0 | 0.0 | 0.0 | 0.25 | 0.64 | 0.25 | 89 | 1010.0 |
| 20260507051528 | 12 | 0 | 0.0 | 0.0 | 0.08 | 0.46 | 0.08 | 87 | 1010.0 |
| 20260507050039 | 12 | 0 | 0.0 | 4.8 | 0.05 | 0.43 | 0.05 | 85 | 1009.3 |
| 20260507044528 | 13 | 0 | 0.0 | 0.0 | 0.00 | 0.38 | 0.00 | 84 | 1009.5 |
| 20260507043030 | 13 | 0 | 0.0 | 0.0 | 0.00 | 0.38 | 0.00 | 85 | 1008.7 |
| 20260507041529 | 13 | 0 | 0.0 | 8.0 | 0.00 | 0.38 | 0.00 | 83 | 1009.1 |
| 20260507040030 | 13 | 308 | 0.0 | 11.3 | 0.00 | 0.38 | 0.00 | 82 | 1009.3 |
| 20260507034530 | 13 | 0 | 0.0 | 9.7 | 0.00 | 0.38 | 0.38 | 83 | 1009.3 |
| 20260507033028 | 13 | 0 | 0.0 | 0.0 | 0.00 | 0.38 | 0.38 | 84 | 1009.0 |
| 20260507031533 | 14 | 0 | 0.0 | 3.2 | 0.00 | 0.38 | 0.38 | 84 | 1009.0 |
| 20260507030035 | 15 | 0 | 0.0 | 12.9 | 0.00 | 0.38 | 0.38 | 84 | 1008.9 |
| 20260507024529 | 15 | 0 | 0.0 | 9.7 | 0.03 | 0.38 | 0.38 | 86 | 1008.7 |
| 20260507023026 | 16 | 0 | 0.0 | 12.9 | 0.05 | 0.38 | 0.38 | 87 | 1008.6 |
| 20260507021527 | 17 | 0 | 0.0 | 0.0 | 0.05 | 0.38 | 0.38 | 90 | 1008.5 |
| 20260507020029 | 17 | 0 | 0.0 | 0.0 | 0.03 | 0.36 | 0.36 | 89 | 1008.6 |
| 20260507014529 | 17 | 0 | 0.0 | 0.0 | 0.03 | 0.36 | 0.36 | 87 | 1008.6 |
| 20260507013028 | 18 | 0 | 0.0 | 0.0 | 0.00 | 0.33 | 0.33 | 84 | 1008.2 |
| 20260507011531 | 18 | 0 | 0.0 | 0.0 | 0.00 | 0.33 | 0.33 | 84 | 1008.0 |
| 20260507010043 | 18 | 0 | 0.0 | 0.0 | 0.00 | 0.33 | 0.33 | 84 | 1008.1 |
| 20260507004533 | 18 | 0 | 0.0 | 0.0 | 0.00 | 0.33 | 0.33 | 84 | 1007.8 |
| 20260507003029 | 18 | 0 | 0.0 | 1.6 | 0.00 | 0.33 | 0.33 | 85 | 1007.4 |
| 20260507001527 | 18 | 0 | 0.0 | 0.0 | 0.00 | 0.33 | 0.33 | 84 | 1007.5 |
| 20260507000028 | 18 | 0 | 0.0 | 0.0 | 0.00 | 0.33 | 0.33 | 83 | 1007.4 |
| 20260506234531 | 18 | 0 | 0.0 | 0.0 | 0.00 | 0.33 | 0.33 | 81 | 1007.4 |
| 20260506233030 | 19 | 0 | 0.0 | 4.8 | 0.00 | 0.33 | 0.33 | 80 | 1007.3 |
| 20260506231608 | 19 | 0 | 0.0 | 8.0 | 0.00 | 0.33 | 0.33 | 79 | 1007.4 |
| 20260506230029 | 19 | 0 | 0.0 | 0.0 | 0.00 | 0.33 | 0.33 | 80 | 1007.2 |
| 20260506224536 | 20 | 0 | 0.0 | 9.7 | 0.00 | 0.33 | 0.33 | 78 | 1007.2 |
| 20260506223030 | 19 | 194 | 0.0 | 11.3 | 0.00 | 0.33 | 0.33 | 79 | 1006.8 |
| 20260506221528 | 19 | 279 | 3.2 | 14.5 | 0.00 | 0.33 | 0.33 | 79 | 1007.1 |
| 20260506220035 | 19 | 259 | 3.2 | 14.5 | 0.00 | 0.33 | 0.33 | 80 | 1007.0 |
| 20260506214529 | 18 | 0 | 1.6 | 12.9 | 0.00 | 0.33 | 0.33 | 80 | 1006.9 |
| 20260506213030 | 18 | 0 | 0.0 | 12.9 | 0.00 | 0.33 | 0.33 | 81 | 1006.8 |
| 20260506211533 | 18 | 0 | 0.0 | 9.7 | 0.00 | 0.33 | 0.33 | 81 | 1006.8 |
| 20260506210031 | 18 | 274 | 1.6 | 11.3 | 0.00 | 0.33 | 0.33 | 81 | 1006.8 |
| 20260506204534 | 18 | 0 | 0.0 | 16.1 | 0.00 | 0.33 | 0.33 | 83 | 1006.7 |
| 20260506203031 | 17 | 246 | 1.6 | 11.3 | 0.00 | 0.33 | 0.33 | 84 | 1006.7 |
| 20260506201537 | 17 | 164 | 1.6 | 11.3 | 0.00 | 0.33 | 0.33 | 85 | 1006.7 |
| 20260506200030 | 17 | 0 | 0.0 | 6.4 | 0.00 | 0.33 | 0.33 | 85 | 1006.8 |
| 20260506194528 | 17 | 0 | 0.0 | 9.7 | 0.00 | 0.33 | 0.33 | 87 | 1006.9 |
| 20260506193027 | 16 | 0 | 0.0 | 16.1 | 0.00 | 0.33 | 0.33 | 87 | 1007.2 |
| 20260506191526 | 16 | 0 | 1.6 | 12.9 | 0.00 | 0.33 | 0.33 | 88 | 1007.3 |
| 20260506190029 | 16 | 0 | 0.0 | 12.9 | 0.00 | 0.33 | 0.33 | 89 | 1007.3 |
| 20260506184532 | 16 | 0 | 0.0 | 11.3 | 0.00 | 0.33 | 0.33 | 88 | 1007.5 |
| 20260506183032 | 16 | 0 | 0.0 | 16.1 | 0.00 | 0.33 | 0.33 | 88 | 1007.5 |
| 20260506181527 | 16 | 0 | 0.0 | 8.0 | 0.00 | 0.33 | 0.33 | 89 | 1007.5 |
| 20260506180032 | 16 | 0 | 0.0 | 12.9 | 0.00 | 0.33 | 0.33 | 89 | 1007.7 |
| 20260506174533 | 16 | 319 | 1.6 | 16.1 | 0.03 | 0.33 | 0.33 | 89 | 1007.8 |
| 20260506173030 | 16 | 0 | 0.0 | 11.3 | 0.03 | 0.33 | 0.33 | 89 | 1008.0 |
| 20260506171538 | 16 | 0 | 0.0 | 9.7 | 0.05 | 0.33 | 0.33 | 90 | 1007.9 |
| 20260506170029 | 17 | 0 | 0.0 | 3.2 | 0.10 | 0.33 | 0.33 | 91 | 1007.8 |
| 20260506164526 | 16 | 0 | 0.0 | 0.0 | 0.13 | 0.30 | 0.30 | 92 | 1008.1 |
| 20260506163030 | 16 | 0 | 0.0 | 4.8 | 0.20 | 0.30 | 0.30 | 90 | 1008.0 |
| 20260506161533 | 16 | 0 | 0.0 | 4.8 | 0.23 | 0.28 | 0.28 | 90 | 1008.9 |
| 20260506160030 | 16 | 0 | 0.0 | 0.0 | 0.20 | 0.23 | 0.23 | 88 | 1009.3 |
| 20260506154529 | 16 | 0 | 0.0 | 4.8 | 0.15 | 0.15 | 0.15 | 86 | 1009.3 |
| 20260506153027 | 17 | 0 | 0.0 | 0.0 | 0.10 | 0.10 | 0.10 | 85 | 1009.4 |
| 20260506151533 | 17 | 0 | 0.0 | 0.0 | 0.05 | 0.05 | 0.05 | 83 | 1009.3 |
| 20260506150028 | 17 | 0 | 0.0 | 8.0 | 0.03 | 0.03 | 0.03 | 80 | 1009.0 |
| 20260506144531 | 18 | 0 | 0.0 | 8.0 | 0.00 | 0.00 | 0.00 | 76 | 1009.3 |
| 20260506143028 | 19 | 0 | 0.0 | 14.5 | 0.00 | 0.00 | 0.00 | 71 | 1009.4 |
| 20260506141528 | 20 | 0 | 0.0 | 16.1 | 0.00 | 0.00 | 0.00 | 70 | 1009.2 |
| 20260506140033 | 20 | 0 | 1.6 | 12.9 | 0.00 | 0.00 | 0.00 | 71 | 1009.0 |
| 20260506134528 | 19 | 0 | 0.0 | 22.5 | 0.00 | 0.00 | 0.00 | 72 | 1009.0 |
| 20260506133031 | 19 | 0 | 0.0 | 19.3 | 0.00 | 0.00 | 0.00 | 72 | 1009.0 |
| 20260506131526 | 18 | 0 | 1.6 | 14.5 | 0.00 | 0.00 | 0.00 | 73 | 1009.2 |
| 20260506130028 | 18 | 262 | 0.0 | 9.7 | 0.00 | 0.00 | 0.00 | 73 | 1009.4 |
| 20260506124531 | 18 | 0 | 0.0 | 14.5 | 0.00 | 0.00 | 0.00 | 74 | 1009.1 |
| 20260506123030 | 18 | 0 | 0.0 | 6.4 | 0.00 | 0.00 | 0.00 | 74 | 1009.2 |
| 20260506121529 | 18 | 0 | 0.0 | 8.0 | 0.00 | 0.00 | 0.00 | 75 | 1009.1 |
| 20260506120029 | 17 | 0 | 0.0 | 8.0 | 0.00 | 0.00 | 0.00 | 75 | 1009.2 |
| 20260506114536 | 17 | 0 | 0.0 | 4.8 | 0.00 | 0.00 | 0.00 | 76 | 1009.2 |
| 20260506113028 | 17 | 0 | 0.0 | 12.9 | 0.00 | 0.00 | 0.00 | 75 | 1009.2 |
| 20260506111527 | 17 | 0 | 0.0 | 14.5 | 0.00 | 0.00 | 0.00 | 75 | 1009.2 |
| 20260506110032 | 17 | 0 | 0.0 | 11.3 | 0.00 | 0.00 | 0.00 | 76 | 1009.1 |
| 20260506104531 | 17 | 0 | 0.0 | 14.5 | 0.00 | 0.00 | 0.00 | 76 | 1009.0 |
| 20260506103030 | 17 | 0 | 0.0 | 17.7 | 0.00 | 0.00 | 0.00 | 77 | 1008.9 |
| 20260506101530 | 17 | 0 | 0.0 | 12.9 | 0.00 | 0.00 | 0.00 | 77 | 1008.9 |
| 20260506100027 | 17 | 0 | 1.6 | 16.1 | 0.00 | 0.00 | 0.00 | 76 | 1008.9 |
| 20260506094527 | 17 | 230 | 0.0 | 11.3 | 0.00 | 0.00 | 0.00 | 76 | 1008.8 |
| 20260506093028 | 18 | 0 | 0.0 | 9.7 | 0.00 | 0.00 | 0.00 | 75 | 1008.8 |
| 20260506091529 | 18 | 0 | 0.0 | 4.8 | 0.00 | 0.00 | 0.00 | 76 | 1008.9 |
| 20260506090030 | 18 | 0 | 0.0 | 12.9 | 0.00 | 0.00 | 0.00 | 75 | 1008.9 |
| 20260506084529 | 18 | 0 | 0.0 | 11.3 | 0.00 | 0.00 | 0.00 | 76 | 1009.0 |
| 20260506083028 | 18 | 0 | 0.0 | 9.7 | 0.00 | 0.00 | 0.00 | 76 | 1009.0 |
| 20260506081528 | 18 | 0 | 0.0 | 9.7 | 0.00 | 0.00 | 0.00 | 75 | 1009.0 |
| 20260506073030 | 18 | 0 | 0.0 | 9.7 | 0.00 | 0.00 | 0.00 | 74 | 1009.1 |
| 20260506071527 | 18 | 0 | 0.0 | 9.7 | 0.00 | 0.00 | 0.00 | 74 | 1009.1 |
| 20260506061530 | 19 | 0 | 0.0 | 11.3 | 0.00 | 0.00 | 0.00 | 70 | 1009.5 |